Date String (YYYY-MM-DD hh:mm:ss) UTC,Instrument flags,absolute air pressure of the measurement (hPa),sample flow rate (lpm),inlet stack bypass flow (lpm),air temperature of the measurement (°C),ambient temperature measured by the external sensor (°C),aerosol sample conditioner tube jacket temperature (°C),OPC LED temperature (°C),internal box temperature (°C),relative humidity of the measurement (%),span deviation,mass concentration of particles derived from Lorenz-Mie calculation of OPC scattering (μg/m³),mass concentration of particles derived from Lorenz-Mie calculation of OPC scattering (μg/m³),mass concentration of particles derived from Lorenz-Mie calculation of OPC scattering (μg/m³)
DateTimeUTC,F1_M11,P_M11,Q1_M11,Q2_M11,T1_M11,T2_M11,T3_M11,T4_M11,T5_M11,U1_M11,ZSPAN_M11,X0_M11,X2_M11,X1_M11
2023-09-05 01:00:00,SystemResetWarning,0822.9,4.99,000.00,027.9,027.0,000.0,036.0,029.7,19.9,0000.0,0002.43,0001.47,0001.09
2023-09-05 01:01:00,SystemResetWarning,0822.8,4.99,000.00,027.9,026.0,000.0,036.0,029.4,20.1,0000.0,0002.47,0001.48,0001.10
2023-09-05 01:02:00,SystemResetWarning,0822.8,5.00,000.00,027.8,024.3,000.0,036.0,028.9,19.7,0000.0,0002.54,0001.51,0001.12
2023-09-05 01:03:00,SystemResetWarning,0822.9,5.02,000.00,027.6,023.8,000.0,035.9,028.8,19.8,0000.0,0002.70,0001.53,0001.11
2023-09-05 01:04:00,SystemResetWarning,0822.9,5.00,000.00,027.5,024.1,000.0,035.9,028.7,20.2,0000.0,0002.80,0001.55,0001.12
2023-09-05 01:05:00,SystemResetWarning,0823.1,4.99,000.00,027.5,024.4,000.0,035.9,028.8,20.4,0000.0,0002.78,0001.56,0001.13
2023-09-05 01:06:00,SystemResetWarning,0823.0,5.00,000.00,027.5,024.9,000.0,035.9,029.0,20.3,0000.0,0002.77,0001.55,0001.13
2023-09-05 01:07:00,SystemResetWarning,0823.0,5.01,000.00,027.6,025.3,000.0,035.9,029.1,20.2,0000.0,0002.64,0001.54,0001.13
2023-09-05 01:08:00,SystemResetWarning,0823.1,5.00,000.00,027.6,025.7,000.0,035.9,029.2,20.1,0000.0,0002.54,0001.50,0001.13
2023-09-05 01:09:00,SystemResetWarning,0823.1,5.00,000.00,027.7,026.1,000.0,035.9,029.4,20.1,0000.0,0002.65,0001.48,0001.13
2023-09-05 01:10:00,SystemResetWarning,0823.1,5.00,000.00,027.7,026.3,000.0,036.0,029.4,20.1,0000.0,0003.30,0001.46,0001.14
2023-09-05 01:11:00,SystemResetWarning,0823.2,5.00,000.00,027.8,026.6,000.0,036.0,029.5,20.0,0000.0,0003.29,0001.45,0001.15
2023-09-05 01:12:00,SystemResetWarning,0823.3,5.00,000.00,027.8,026.8,000.0,036.0,029.6,19.7,0000.0,0003.41,0001.44,0001.15
2023-09-05 01:13:00,SystemResetWarning,0823.3,5.01,000.00,027.9,027.0,000.0,036.1,029.7,19.5,0000.0,0003.97,0001.42,0001.15
2023-09-05 01:14:00,SystemResetWarning,0823.3,4.99,000.00,027.9,026.6,000.0,036.1,029.6,19.2,0000.0,0003.98,0001.43,0001.15
2023-09-05 01:15:00,SystemResetWarning,0823.3,4.99,000.00,027.8,024.8,000.0,036.0,029.1,19.3,0000.0,0003.90,0001.41,0001.16
2023-09-05 01:16:00,SystemResetWarning,0823.3,5.01,000.00,027.7,023.8,000.0,035.9,028.8,19.6,0000.0,0003.87,0001.41,0001.16
2023-09-05 01:17:00,SystemResetWarning,0823.3,5.01,000.00,027.6,023.9,000.0,035.9,028.7,19.8,0000.0,0004.05,0001.44,0001.17
2023-09-05 01:18:00,SystemResetWarning,0823.3,4.99,000.00,027.5,024.3,000.0,035.9,028.8,19.8,0000.0,0004.14,0001.48,0001.17
2023-09-05 01:19:00,SystemResetWarning,0823.3,5.00,000.00,027.5,024.7,000.0,035.9,028.9,19.7,0000.0,0004.18,0001.49,0001.17
2023-09-05 01:20:00,SystemResetWarning,0823.4,5.00,000.00,027.5,025.2,000.0,035.9,029.1,19.6,0000.0,0004.10,0001.52,0001.17
2023-09-05 01:21:00,SystemResetWarning,0823.4,4.99,000.00,027.6,025.6,000.0,035.9,029.2,20.0,0000.0,0003.38,0001.51,0001.16
2023-09-05 01:22:00,SystemResetWarning,0823.4,5.00,000.00,027.6,025.9,000.0,036.0,029.3,19.8,0000.0,0003.36,0001.51,0001.15
2023-09-05 01:23:00,SystemResetWarning,0823.4,5.00,000.00,027.7,026.2,000.0,036.0,029.4,19.7,0000.0,0003.34,0001.50,0001.15
2023-09-05 01:24:00,SystemResetWarning,0823.5,5.00,000.00,027.7,026.4,000.0,036.0,029.5,19.8,0000.0,0002.56,0001.50,0001.16
2023-09-05 01:25:00,SystemResetWarning,0823.5,5.00,000.00,027.8,026.7,000.0,036.0,029.5,19.7,0000.0,0002.33,0001.46,0001.16
2023-09-05 01:26:00,SystemResetWarning,0823.5,5.00,000.00,027.8,026.8,000.0,036.1,029.6,19.6,0000.0,0002.37,0001.47,0001.15
2023-09-05 01:27:00,SystemResetWarning,0823.5,5.00,000.00,027.9,027.0,000.0,036.1,029.7,19.6,0000.0,0002.48,0001.48,0001.15
2023-09-05 01:28:00,SystemResetWarning,0823.6,5.00,000.00,028.0,027.1,000.0,036.1,029.8,19.4,0000.0,0002.38,0001.49,0001.15
2023-09-05 01:29:00,SystemResetWarning,0823.6,4.99,000.00,028.0,026.6,000.0,036.1,029.6,19.2,0000.0,0002.47,0001.48,0001.15
2023-09-05 01:30:00,SystemResetWarning,0823.5,4.99,000.00,027.9,024.7,000.0,036.1,029.0,19.2,0000.0,0002.56,0001.50,0001.15
2023-09-05 01:31:00,SystemResetWarning,0823.5,5.01,000.00,027.7,023.8,000.0,036.0,028.8,19.3,0000.0,0002.48,0001.48,0001.16
2023-09-05 01:32:00,SystemResetWarning,0823.5,5.01,000.00,027.6,023.9,000.0,035.9,028.8,19.7,0000.0,0003.24,0001.49,0001.17
2023-09-05 01:33:00,SystemResetWarning,0823.5,4.99,000.00,027.6,024.3,000.0,036.0,028.8,19.6,0000.0,0004.94,0001.48,0001.18
2023-09-05 01:34:00,SystemResetWarning,0823.6,5.00,000.00,027.6,024.7,000.0,036.0,029.0,19.7,0000.0,0005.03,0001.49,0001.19
2023-09-05 01:35:00,SystemResetWarning,0823.7,5.00,000.00,027.6,025.2,000.0,036.0,029.1,19.6,0000.0,0005.06,0001.50,0001.19
2023-09-05 01:36:00,SystemResetWarning,0823.7,5.00,000.00,027.6,025.6,000.0,036.0,029.2,19.6,0000.0,0005.10,0001.52,0001.18
2023-09-05 01:37:00,SystemResetWarning,0823.7,5.00,000.00,027.7,025.9,000.0,036.0,029.3,19.5,0000.0,0005.14,0001.53,0001.19
2023-09-05 01:38:00,SystemResetWarning,0823.7,5.00,000.00,027.7,026.2,000.0,036.0,029.4,19.5,0000.0,0005.09,0001.53,0001.19
2023-09-05 01:39:00,SystemResetWarning,0823.7,5.01,000.00,027.8,026.5,000.0,036.1,029.5,19.7,0000.0,0004.98,0001.49,0001.18
2023-09-05 01:40:00,SystemResetWarning,0823.7,5.00,000.00,027.8,026.7,000.0,036.1,029.6,19.6,0000.0,0005.11,0001.46,0001.19
2023-09-05 01:41:00,SystemResetWarning,0823.8,5.00,000.00,027.9,026.9,000.0,036.1,029.7,19.5,0000.0,0006.13,0001.46,0001.19
2023-09-05 01:42:00,SystemResetWarning,0823.8,5.00,000.00,028.0,027.0,000.0,036.2,029.7,19.5,0000.0,0006.10,0001.45,0001.18
2023-09-05 01:43:00,SystemResetWarning,0823.8,4.99,000.00,028.0,027.0,000.0,036.2,029.7,19.5,0000.0,0005.56,0001.44,0001.17
2023-09-05 01:44:00,SystemResetWarning,0823.8,5.00,000.00,027.9,025.5,000.0,036.1,029.3,19.4,0000.0,0003.97,0001.51,0001.18
2023-09-05 01:45:00,SystemResetWarning,0823.8,5.01,000.00,027.8,024.7,000.0,036.1,029.1,19.7,0000.0,0004.04,0001.57,0001.19
2023-09-05 01:46:00,SystemResetWarning,0823.8,5.01,000.00,027.8,024.8,000.0,036.1,029.0,20.0,0000.0,0004.12,0001.60,0001.19
2023-09-05 01:47:00,SystemResetWarning,0823.8,5.00,000.00,027.7,025.1,000.0,036.1,029.1,20.1,0000.0,0004.23,0001.65,0001.20
2023-09-05 01:48:00,SystemResetWarning,0823.9,5.00,000.00,027.7,025.4,000.0,036.1,029.2,19.9,0000.0,0004.21,0001.66,0001.20
2023-09-05 01:49:00,SystemResetWarning,0823.9,5.00,000.00,027.8,025.8,000.0,036.1,029.3,19.9,0000.0,0004.24,0001.70,0001.21
2023-09-05 01:50:00,SystemResetWarning,0823.8,4.99,000.00,027.8,026.1,000.0,036.1,029.4,19.9,0000.0,0004.36,0001.74,0001.22
2023-09-05 01:51:00,SystemResetWarning,0823.8,5.00,000.00,027.8,026.3,000.0,036.1,029.5,19.9,0000.0,0004.12,0001.76,0001.22
2023-09-05 01:52:00,SystemResetWarning,0823.9,5.00,000.00,027.9,026.5,000.0,036.2,029.6,19.7,0000.0,0003.01,0001.77,0001.24
2023-09-05 01:53:00,SystemResetWarning,0823.9,5.00,000.00,027.9,026.7,000.0,036.2,029.7,19.7,0000.0,0003.10,0001.77,0001.25
2023-09-05 01:54:00,SystemResetWarning,0823.9,5.00,000.00,028.0,026.9,000.0,036.2,029.7,19.7,0000.0,0003.15,0001.79,0001.26
2023-09-05 01:55:00,SystemResetWarning,0823.9,5.00,000.00,028.0,027.0,000.0,036.3,029.8,19.7,0000.0,0002.96,0001.74,0001.25
2023-09-05 01:56:00,SystemResetWarning,0824.0,4.99,000.00,028.1,026.7,000.0,036.3,029.7,19.6,0000.0,0002.71,0001.68,0001.24
2023-09-05 01:57:00,SystemResetWarning,0824.0,5.00,000.00,028.0,025.2,000.0,036.2,029.3,19.7,0000.0,0003.03,0001.68,0001.24
2023-09-05 01:58:00,SystemResetWarning,0824.0,5.02,000.00,027.9,024.7,000.0,036.1,029.2,19.7,0000.0,0003.03,0001.65,0001.25
2023-09-05 01:59:00,SystemResetWarning,0824.0,5.01,000.00,027.8,024.9,000.0,036.1,029.1,19.8,0000.0,0003.04,0001.64,0001.25
